FW0260 Weather Reports


Display with metric or nautical units.
time (UTC)temp
F
wind
direction
speed
MPH
gust
MPH
rain 1hr
in
rain 24hr
in
rain mn
in
humidity
%
barometer
mb
20200401093042 48 79 9.0 15.0 0.00 0.00 0.00 51 1023.0
20200401092541 48 87 10.0 14.0 0.00 0.00 0.00 53 1023.1
20200401092041 48 90 10.0 15.0 0.00 0.00 0.00 55 1023.1
20200401091541 48 89 10.0 15.0 0.00 0.00 0.00 57 1023.2
20200401091042 48 86 9.0 15.0 0.00 0.00 0.00 58 1023.2
20200401090541 48 85 9.0 14.0 0.00 0.00 0.00 58 1023.2
20200401090043 47 92 11.0 14.0 0.00 0.00 0.00 57 1023.4
20200401085541 47 90 11.0 16.0 0.00 0.00 0.00 59 1023.4
20200401085041 47 89 11.0 16.0 0.00 0.00 0.00 58 1023.4
20200401084541 47 93 11.0 15.0 0.00 0.00 0.00 59 1023.4
20200401084041 47 91 10.0 14.0 0.00 0.00 0.00 59 1023.4
20200401083541 47 81 10.0 14.0 0.00 0.00 0.00 58 1023.5
20200401083041 47 77 9.0 14.0 0.00 0.00 0.00 59 1023.4
20200401082544 47 87 8.0 13.0 0.00 0.00 0.00 55 1023.5
20200401082041 47 77 9.0 15.0 0.00 0.00 0.00 59 1023.6
20200401081541 46 64 9.0 15.0 0.00 0.00 0.00 57 1023.5
20200401081040 46 58 9.0 13.0 0.00 0.00 0.00 60 1023.6
20200401080540 46 62 10.0 13.0 0.00 0.00 0.00 57 1023.5
20200401080041 46 62 10.0 12.0 0.00 0.00 0.00 59 1023.6
20200401075541 46 57 10.0 12.0 0.00 0.00 0.00 60 1023.5
20200401075041 45 54 10.0 12.0 0.00 0.00 0.00 61 1023.6
20200401074540 45 53 9.0 12.0 0.00 0.00 0.00 59 1023.5
20200401074040 44 53 9.0 12.0 0.00 0.00 0.00 61 1023.4
20200401073541 44 56 10.0 13.0 0.00 0.00 0.00 62 1023.4
20200401073040 44 57 10.0 14.0 0.00 0.00 0.00 60 1023.4
20200401072540 43 58 9.0 14.0 0.00 0.00 0.00 62 1023.4
20200401072040 43 59 8.0 12.0 0.00 0.00 0.00 64 1023.4
20200401071541 43 57 8.0 10.0 0.00 0.00 0.00 64 1023.3
20200401071040 42 56 7.0 10.0 0.00 0.00 0.00 65 1023.3
20200401070540 42 53 6.0 9.0 0.00 0.00 0.00 67 1023.4
20200401070041 41 51 6.0 9.0 0.00 0.00 0.00 68 1023.4
20200401065540 41 49 6.0 9.0 0.00 0.00 0.00 68 1023.3
20200401065039 41 47 5.0 9.0 0.00 0.00 0.00 69 1023.4
20200401064540 41 50 5.0 9.0 0.00 0.00 0.00 71 1023.6
20200401064040 40 54 4.0 8.0 0.00 0.00 0.00 72 1023.6
20200401063539 40 56 4.0 5.0 0.00 0.00 0.00 74 1023.6
20200401063040 40 56 4.0 5.0 0.00 0.00 0.00 73 1023.5
20200401062539 40 56 3.0 5.0 0.00 0.00 0.00 73 1023.5
20200401062039 40 55 4.0 6.0 0.00 0.00 0.00 73 1023.5
20200401061539 40 53 4.0 6.0 0.00 0.00 0.00 73 1023.6
20200401061039 39 51 4.0 5.0 0.00 0.00 0.00 74 1023.6
20200401060539 39 51 3.0 5.0 0.00 0.00 0.00 73 1023.5
20200401060039 39 51 4.0 5.0 0.00 0.00 0.00 73 1023.5
20200401055539 39 55 4.0 5.0 0.00 0.00 0.00 74 1023.4
20200401055039 39 55 4.0 5.0 0.00 0.00 0.00 74 1023.3
20200401054539 39 54 4.0 6.0 0.00 0.00 0.00 74 1023.4
20200401054040 39 56 4.0 6.0 0.00 0.00 0.00 74 1023.4
20200401053539 39 56 4.0 5.0 0.00 0.00 0.00 74 1023.5
20200401053039 39 56 3.0 5.0 0.00 0.00 0.00 73 1023.5
20200401052539 39 55 3.0 4.0 0.00 0.00 0.00 73 1023.4
20200401052038 38 56 3.0 5.0 0.00 0.00 0.00 74 1023.3
20200401051539 38 57 4.0 5.0 0.00 0.00 0.00 74 1023.2
20200401051039 38 59 4.0 5.0 0.00 0.00 0.00 74 1023.2
20200401050538 38 61 4.0 6.0 0.00 0.00 0.00 74 1023.2
20200401050042 38 60 4.0 6.0 0.00 0.00 0.00 74 1023.1
20200401045540 38 59 4.0 6.0 0.00 0.00 0.00 75 1023.2
20200401045039 38 58 5.0 6.0 0.00 0.00 0.00 75 1023.1
20200401044538 38 56 5.0 6.0 0.00 0.00 0.00 75 1023.2
20200401044039 38 54 4.0 6.0 0.00 0.00 0.00 75 1023.1
20200401043538 38 55 5.0 6.0 0.00 0.00 0.00 74 1023.0
20200401043038 38 59 5.0 6.0 0.00 0.00 0.00 73 1023.1
20200401042538 38 63 5.0 8.0 0.00 0.00 0.00 73 1023.2
20200401042038 38 60 5.0 8.0 0.00 0.00 0.00 73 1023.2
20200401041539 38 56 5.0 6.0 0.00 0.00 0.00 73 1023.2
20200401041038 38 56 5.0 8.0 0.00 0.00 0.00 73 1023.3
20200401040538 38 58 6.0 9.0 0.00 0.00 0.00 73 1023.3
20200401040039 38 59 7.0 9.0 0.00 0.00 0.00 72 1023.3
20200401035538 38 58 7.0 9.0 0.00 0.00 0.00 73 1023.4
20200401035038 38 56 6.0 9.0 0.00 0.00 0.00 74 1023.3
20200401034538 38 55 6.0 10.0 0.00 0.00 0.00 75 1023.2
20200401034038 38 56 6.0 10.0 0.00 0.00 0.00 75 1023.3
20200401033538 38 55 5.0 8.0 0.00 0.00 0.00 77 1023.3
20200401033038 38 52 5.0 8.0 0.00 0.00 0.00 77 1023.3
20200401032537 38 54 6.0 8.0 0.00 0.00 0.00 77 1023.3
20200401032037 38 58 6.0 9.0 0.00 0.00 0.00 77 1023.3
20200401031538 38 60 6.0 9.0 0.00 0.00 0.00 78 1023.3
20200401031038 37 57 5.0 9.0 0.00 0.00 0.00 78 1023.5
20200401030538 37 52 5.0 9.0 0.00 0.00 0.00 79 1023.4
20200401030038 37 45 5.0 8.0 0.00 0.00 0.00 77 1023.4
20200401025537 38 38 4.0 8.0 0.00 0.00 0.00 76 1023.4
20200401025037 38 30 4.0 7.0 0.00 0.00 0.00 76 1023.6
20200401024537 38 26 4.0 7.0 0.00 0.00 0.00 77 1023.6
20200401024037 38 27 4.0 5.0 0.00 0.00 0.00 77 1023.6
20200401023537 38 29 4.0 7.0 0.00 0.00 0.00 78 1023.6
20200401023038 38 32 4.0 7.0 0.00 0.00 0.00 78 1023.5
20200401022537 38 35 5.0 8.0 0.00 0.00 0.00 79 1023.6
20200401022037 38 37 6.0 9.0 0.00 0.00 0.00 80 1023.5
20200401021537 37 38 6.0 9.0 0.00 0.00 0.00 81 1023.4
20200401021037 37 39 5.0 8.0 0.00 0.00 0.00 81 1023.4
20200401020537 37 41 5.0 8.0 0.00 0.00 0.00 82 1023.5
20200401020037 37 41 4.0 6.0 0.00 0.00 0.00 82 1023.5
20200401015537 37 45 5.0 8.0 0.00 0.01 0.00 82 1023.6
20200401015036 37 52 6.0 9.0 0.00 0.01 0.00 81 1023.4
20200401014536 38 55 7.0 9.0 0.00 0.01 0.00 80 1023.5
20200401014036 38 59 7.0 10.0 0.00 0.01 0.00 81 1023.5
20200401013536 38 61 7.0 10.0 0.00 0.01 0.00 82 1023.4
20200401013037 37 60 6.0 9.0 0.00 0.01 0.00 83 1023.4
20200401012537 37 61 6.0 8.0 0.00 0.01 0.00 83 1023.4
20200401012037 37 61 5.0 8.0 0.00 0.01 0.00 83 1023.5
20200401011536 36 60 5.0 8.0 0.00 0.01 0.00 83 1023.5
20200401011036 36 58 4.0 6.0 0.00 0.01 0.00 83 1023.6
20200401010536 36 57 5.0 6.0 0.00 0.01 0.00 83 1023.6
20200401010037 36 65 4.0 6.0 0.00 0.01 0.00 83 1023.6
20200401005537 36 75 3.0 6.0 0.00 0.01 0.00 83 1023.6
20200401005036 36 74 3.0 5.0 0.00 0.01 0.00 82 1023.6
20200401004536 36 77 4.0 5.0 0.00 0.01 0.00 82 1023.7
20200401004036 36 80 4.0 5.0 0.00 0.02 0.00 82 1023.7
20200401003536 37 79 4.0 6.0 0.00 0.02 0.00 82 1023.8
20200401003036 37 77 5.0 6.0 0.00 0.02 0.00 81 1023.7
20200401002536 37 75 4.0 6.0 0.00 0.02 0.00 81 1023.8
20200401002036 37 75 4.0 6.0 0.00 0.02 0.00 81 1023.7
20200401001537 37 75 4.0 6.0 0.00 0.02 0.00 81 1023.7
20200401001036 38 73 4.0 6.0 0.00 0.02 0.00 80 1023.8
20200401000536 38 71 4.0 6.0 0.00 0.02 0.00 79 1023.9
20200401000036 39 67 5.0 9.0 0.00 0.02 0.00 78 1023.8
20200331235537 39 63 6.0 9.0 0.00 0.02 0.00 77 1023.8
20200331235036 40 62 7.0 10.0 0.00 0.02 0.00 76 1024.0
20200331234536 40 60 7.0 10.0 0.00 0.03 0.00 76 1024.0
20200331234036 39 56 6.0 9.0 0.00 0.03 0.00 78 1023.9
20200331233536 39 53 6.0 9.0 0.00 0.03 0.00 78 1023.9
20200331233036 39 51 6.0 8.0 0.00 0.04 0.00 78 1024.0
20200331232536 39 49 6.0 8.0 0.00 0.04 0.00 78 1024.0
20200331232036 39 47 6.0 8.0 0.00 0.04 0.00 77 1024.0
20200331231536 40 47 5.0 6.0 0.00 0.05 0.00 76 1023.9
20200331231035 40 47 5.0 8.0 0.00 0.05 0.00 76 1024.0
20200331230536 40 49 5.0 8.0 0.00 0.05 0.00 75 1023.9
20200331230040 41 48 5.0 6.0 0.00 0.06 0.00 74 1023.9
20200331225535 42 43 5.0 6.0 0.00 0.06 0.00 72 1023.9
20200331225036 42 41 4.0 6.0 0.00 0.07 0.00 71 1024.0
20200331224536 42 45 4.0 5.0 0.00 0.07 0.00 72 1023.9
20200331224035 41 49 4.0 5.0 0.00 0.08 0.00 75 1023.9
20200331223535 41 48 4.0 6.0 0.00 0.09 0.00 75 1023.9
20200331223036 42 46 4.0 6.0 0.00 0.09 0.00 76 1023.9
20200331222535 42 43 4.0 6.0 0.00 0.09 0.00 75 1023.9
20200331222035 42 41 3.0 5.0 0.00 0.10 0.00 72 1023.8
20200331221535 43 39 3.0 5.0 0.00 0.11 0.00 71 1023.8
20200331221035 43 38 3.0 5.0 0.00 0.11 0.00 69 1023.9
20200331220535 43 34 3.0 5.0 0.00 0.12 0.00 69 1023.9
20200331220037 43 31 3.0 5.0 0.00 0.13 0.00 68 1023.9
20200331215535 43 30 3.0 5.0 0.00 0.13 0.13 68 1023.9
20200331215035 44 30 3.0 5.0 0.00 0.13 0.13 68 1023.9
20200331214535 44 32 3.0 5.0 0.00 0.14 0.13 68 1023.9
20200331214035 44 33 3.0 5.0 0.00 0.15 0.13 66 1024.0
20200331213534 44 34 3.0 5.0 0.00 0.15 0.13 65 1023.9
20200331213035 44 56 3.0 5.0 0.00 0.16 0.13 66 1023.9
20200331212534 43 85 3.0 4.0 0.00 0.17 0.13 68 1023.9
20200331212035 42 85 3.0 4.0 0.00 0.17 0.13 72 1023.9
20200331211534 43 85 3.0 4.0 0.00 0.18 0.13 75 1023.8
20200331211035 42 85 3.0 4.0 0.00 0.18 0.13 73 1023.8
20200331210535 42 85 3.0 4.0 0.00 0.19 0.13 75 1023.8
20200331210035 42 85 3.0 4.0 0.00 0.20 0.13 76 1023.9
20200331205534 42 85 2.0 4.0 0.00 0.20 0.13 76 1023.9
20200331205034 42 85 2.0 3.0 0.00 0.20 0.13 77 1023.7
20200331204534 42 85 2.0 4.0 0.00 0.21 0.13 79 1023.7
20200331204034 42 85 3.0 4.0 0.00 0.22 0.13 79 1023.6
20200331203534 42 85 3.0 5.0 0.00 0.23 0.13 79 1023.6
20200331203034 42 85 4.0 6.0 0.00 0.23 0.13 78 1023.6
20200331202534 42 86 6.0 8.0 0.00 0.24 0.13 77 1023.6
20200331202034 42 86 6.0 9.0 0.00 0.24 0.13 77 1023.6
20200331201534 41 86 6.0 9.0 0.00 0.24 0.13 79 1023.5
20200331201035 41 86 5.0 6.0 0.00 0.25 0.13 80 1023.4
20200331200535 41 86 4.0 6.0 0.00 0.26 0.13 80 1023.4
20200331200034 41 86 5.0 6.0 0.00 0.26 0.13 80 1023.4
20200331195534 40 86 5.0 6.0 0.00 0.27 0.13 79 1023.3
20200331195034 40 86 5.0 6.0 0.00 0.28 0.13 79 1023.3
20200331194534 40 86 5.0 6.0 0.00 0.28 0.13 79 1023.2
20200331194034 41 85 5.0 6.0 0.00 0.28 0.13 79 1023.2
20200331193534 41 85 4.0 6.0 0.00 0.29 0.13 80 1023.1
20200331193034 41 86 4.0 5.0 0.00 0.30 0.13 80 1023.0
20200331192533 41 86 4.0 5.0 0.00 0.30 0.13 80 1023.1
20200331192034 41 86 4.0 4.0 0.00 0.31 0.13 80 1023.1
20200331191534 41 86 4.0 5.0 0.00 0.31 0.13 79 1023.0
20200331191034 40 85 4.0 5.0 0.00 0.31 0.13 79 1023.0
20200331190534 40 83 4.0 5.0 0.00 0.31 0.13 78 1022.9
20200331190034 40 81 4.0 6.0 0.00 0.31 0.13 78 1022.8
20200331185534 41 87 5.0 7.0 0.00 0.32 0.13 77 1022.8
20200331185034 41 93 5.0 7.0 0.00 0.32 0.13 76 1022.7
20200331184533 41 94 4.0 7.0 0.00 0.32 0.13 76 1022.6
20200331184034 41 92 4.0 7.0 0.00 0.33 0.13 76 1022.6
20200331183533 41 92 4.0 7.0 0.00 0.33 0.13 76 1022.6
20200331183034 41 93 4.0 5.0 0.00 0.33 0.13 75 1022.5
20200331182533 42 93 5.0 7.0 0.00 0.33 0.13 75 1022.4
20200331182034 42 92 5.0 7.0 0.00 0.33 0.13 74 1022.3
20200331181533 42 90 5.0 7.0 0.00 0.33 0.13 72 1022.3
20200331181034 43 90 5.0 7.0 0.00 0.33 0.13 70 1022.0
20200331180533 44 98 5.0 8.0 0.00 0.33 0.13 68 1022.0
20200331180034 44 104 5.0 8.0 0.00 0.33 0.13 67 1021.8
20200331175533 44 105 4.0 7.0 0.00 0.33 0.13 67 1021.8
20200331175033 44 106 5.0 8.0 0.00 0.33 0.13 66 1021.8
20200331174533 45 104 6.0 9.0 0.00 0.33 0.13 64 1021.7
20200331174033 45 103 7.0 9.0 0.00 0.33 0.13 63 1021.7
20200331173533 46 109 6.0 9.0 0.00 0.33 0.13 61 1021.5
20200331173033 46 115 5.0 9.0 0.00 0.33 0.13 59 1021.5
20200331172533 47 117 5.0 9.0 0.00 0.33 0.13 57 1021.4
20200331172033 47 119 5.0 9.0 0.00 0.33 0.13 56 1021.5
20200331171532 48 120 5.0 7.0 0.00 0.33 0.13 54 1021.3
20200331171033 48 118 5.0 8.0 0.00 0.33 0.13 53 1021.4
20200331170533 48 118 5.0 8.0 0.00 0.33 0.13 53 1021.2
20200331170033 48 116 5.0 8.0 0.00 0.33 0.13 51 1021.2
20200331165533 48 110 4.0 7.0 0.00 0.33 0.13 51 1021.2
20200331165033 48 104 4.0 6.0 0.00 0.33 0.13 53 1021.3
20200331164532 49 92 5.0 9.0 0.00 0.33 0.13 50 1021.4
20200331164033 49 88 7.0 9.0 0.00 0.33 0.13 45 1021.3
20200331163533 49 101 5.0 9.0 0.00 0.33 0.13 48 1021.3
20200331163035 49 128 4.0 9.0 0.00 0.33 0.13 43 1021.2
20200331162532 49 122 4.0 8.0 0.00 0.33 0.13 41 1021.2
20200331162033 49 116 6.0 9.0 0.00 0.33 0.13 48 1021.2
20200331161531 49 114 7.0 11.0 0.00 0.33 0.13 45 1021.1
20200331161032 49 109 8.0 12.0 0.00 0.33 0.13 43 1021.2
20200331160531 49 110 7.0 12.0 0.00 0.33 0.13 47 1021.1
20200331160032 50 116 7.0 11.0 0.00 0.33 0.13 41 1021.1
20200331155531 50 108 8.0 14.0 0.00 0.33 0.13 40 1021.0
20200331155031 50 98 8.0 14.0 0.00 0.33 0.13 41 1020.9
20200331154531 50 102 8.0 13.0 0.00 0.33 0.13 42 1021.0
20200331154032 50 110 7.0 13.0 0.00 0.33 0.13 47 1021.0
20200331153531 50 108 8.0 14.0 0.00 0.33 0.13 42 1021.0
20200331153031 50 99 11.0 16.0 0.00 0.33 0.13 38 1021.0
20200331152532 50 100 13.0 18.0 0.00 0.33 0.13 41 1021.0
20200331152031 50 105 9.0 18.0 0.00 0.33 0.13 42 1021.2
20200331151531 50 99 7.0 13.0 0.00 0.33 0.13 44 1021.1
20200331151031 50 98 8.0 13.0 0.00 0.33 0.13 40 1021.2
20200331150531 50 95 9.0 16.0 0.00 0.33 0.13 42 1021.2
20200331150031 50 79 9.0 16.0 0.00 0.33 0.13 39 1021.3
20200331145531 50 85 8.0 13.0 0.00 0.33 0.13 39 1021.3
20200331145031 50 90 10.0 15.0 0.00 0.33 0.13 41 1021.2
20200331144531 50 76 10.0 15.0 0.00 0.33 0.13 46 1021.4
20200331144031 50 80 10.0 14.0 0.00 0.33 0.13 43 1021.4
20200331143531 50 90 9.0 14.0 0.00 0.33 0.13 40 1021.5
20200331143031 50 95 10.0 16.0 0.00 0.33 0.13 41 1021.5
20200331142531 49 100 11.0 16.0 0.00 0.33 0.13 43 1021.6
20200331142031 50 105 10.0 16.0 0.00 0.33 0.13 49 1021.6
20200331141531 50 98 11.0 15.0 0.00 0.33 0.13 41 1021.7
20200331141031 50 95 11.0 19.0 0.00 0.33 0.13 48 1021.7
20200331140530 50 102 9.0 19.0 0.00 0.33 0.13 45 1021.7
20200331140031 49 104 10.0 19.0 0.00 0.33 0.13 47 1021.7
20200331135530 49 91 12.0 19.0 0.00 0.33 0.13 45 1021.9
20200331135030 50 78 12.0 19.0 0.00 0.33 0.13 45 1021.7
20200331134530 49 84 13.0 19.0 0.00 0.33 0.13 42 1021.8
20200331134030 51 97 12.0 19.0 0.00 0.33 0.13 44 1021.9
20200331133530 50 95 11.0 16.0 0.00 0.33 0.13 48 1021.9
20200331133031 50 94 12.0 20.0 0.00 0.33 0.13 45 1021.8
20200331132531 50 100 12.0 20.0 0.00 0.33 0.13 45 1022.1
20200331132031 50 102 12.0 19.0 0.00 0.33 0.13 49 1022.1
20200331131531 50 94 14.0 20.0 0.00 0.33 0.13 48 1022.1
20200331131030 50 86 14.0 20.0 0.00 0.33 0.13 44 1022.2
20200331130530 50 86 13.0 21.0 0.00 0.33 0.13 49 1022.1
20200331130030 49 88 11.0 21.0 0.00 0.33 0.13 46 1022.2
20200331125530 50 97 11.0 18.0 0.00 0.33 0.13 51 1022.2
20200331125030 49 104 13.0 19.0 0.00 0.33 0.13 46 1022.3
20200331124530 49 103 13.0 19.0 0.00 0.33 0.13 45 1022.3
20200331124030 49 94 13.0 20.0 0.00 0.33 0.13 47 1022.4
20200331123530 49 92 15.0 20.0 0.00 0.33 0.13 47 1022.4
20200331123030 50 97 15.0 21.0 0.00 0.33 0.13 47 1022.5
20200331122530 50 98 13.0 21.0 0.00 0.33 0.13 49 1022.5
20200331122030 49 93 13.0 19.0 0.00 0.33 0.13 50 1022.5
20200331121530 49 95 12.0 19.0 0.00 0.33 0.13 47 1022.5
20200331121031 49 102 12.0 17.0 0.00 0.33 0.13 55 1022.6
20200331120530 49 95 13.0 20.0 0.00 0.33 0.13 52 1022.7
20200331120031 48 90 13.0 20.0 0.00 0.33 0.13 50 1022.7
20200331115530 47 88 14.0 19.0 0.00 0.33 0.13 51 1022.8
20200331115030 48 88 14.0 19.0 0.00 0.33 0.13 52 1022.9
20200331114530 48 92 15.0 22.0 0.00 0.33 0.13 53 1022.8
20200331114030 47 93 15.0 22.0 0.00 0.33 0.13 50 1022.8
20200331113530 48 91 13.0 19.0 0.00 0.33 0.13 54 1022.8
20200331113030 47 94 14.0 19.0 0.00 0.33 0.13 54 1022.9
20200331112530 47 94 14.0 19.0 0.00 0.33 0.13 53 1022.9
20200331112030 48 90 15.0 21.0 0.00 0.33 0.13 52 1022.9
20200331111530 47 85 14.0 21.0 0.00 0.33 0.13 53 1022.9
20200331111030 48 79 12.0 20.0 0.00 0.33 0.13 58 1023.1
20200331110530 48 80 13.0 18.0 0.00 0.33 0.13 58 1023.1
20200331110030 48 78 12.0 18.0 0.00 0.33 0.13 56 1023.1
20200331105530 47 81 11.0 18.0 0.00 0.33 0.13 61 1023.1
20200331105030 47 77 9.0 15.0 0.00 0.33 0.13 64 1023.2
20200331104530 47 61 9.0 14.0 0.00 0.33 0.13 62 1023.2
20200331104030 47 59 11.0 17.0 0.00 0.33 0.13 63 1023.2
20200331103529 47 60 11.0 17.0 0.00 0.33 0.13 64 1023.2
20200331103030 46 58 10.0 13.0 0.00 0.33 0.13 64 1023.3
20200331102530 46 64 9.0 13.0 0.00 0.33 0.13 64 1023.4
20200331102030 46 67 11.0 17.0 0.00 0.33 0.13 65 1023.3
20200331101529 45 65 12.0 17.0 0.00 0.33 0.13 62 1023.3
20200331101030 45 65 12.0 17.0 0.00 0.33 0.13 65 1023.3
20200331100530 45 62 12.0 17.0 0.00 0.33 0.13 65 1023.4
20200331100029 45 56 12.0 15.0 0.00 0.33 0.13 64 1023.4
20200331095529 45 50 11.0 15.0 0.00 0.33 0.13 66 1023.3
20200331095030 45 58 11.0 15.0 0.00 0.33 0.13 67 1023.4
20200331094529 45 62 12.0 17.0 0.00 0.33 0.13 65 1023.4
20200331094029 44 54 12.0 17.0 0.00 0.33 0.13 64 1023.3
20200331093529 44 49 11.0 17.0 0.00 0.33 0.13 65 1023.3